contact:dominique.lefevre@mio.osupytheas.fr, maurice.libes@osupytheas.fr, didier.mallarino@osupytheas.fr
Project:EMSO http://www.emso-fr.org/EMSO-France
Depth: 2436.0 m
Title:EMSO Ligure Ouest : Data MII capteur AQUADOPP
Date,Latitude,Longitude,X_East,Y_North,Z_Up,Amplitude_X,Amplitude_Y,Amplitude_Z,Batterie,SoundSpeed,Heading,Pitch,Roll,Pressure,TIS,Speed,Direction
, degrees North, degrees East, m.s-1, m.s-1,m.s-1, 1, 1, 1, Volt, m.s-1, degree, degree, degree, dbar, degree_C, m.s-1, degree
2019-06-06T00:00:00,42.805,6.029,0.008,0.021,-0.043,98.0,104.0,95.0,13.4,1505.3,323.5,-0.7,1.9,2470.152,13.33,0.022,20.9
2019-06-06T00:09:04,42.805,6.029,0.017,0.02,-0.026,97.0,110.0,96.0,13.4,1505.2,324.7,-0.8,1.8,2470.245,13.3,0.026,40.4
2019-06-06T00:12:05,42.805,6.029,0.039,0.029,-0.012,98.0,106.0,98.0,13.4,1505.3,324.4,-0.8,1.9,2470.275,13.31,0.048,53.4
2019-06-06T00:15:06,42.805,6.029,0.044,0.01,-0.003,98.0,107.0,95.0,13.3,1505.3,326.6,-0.7,1.8,2470.225,13.32,0.045,77.2
2019-06-06T00:18:07,42.805,6.029,-0.003,0.009,-0.071,100.0,107.0,97.0,13.4,1505.3,327.5,-0.7,1.8,2470.213,13.32,0.009,341.6
2019-06-06T00:21:08,42.805,6.029,0.003,0.02,-0.041,98.0,105.0,97.0,13.3,1505.3,323.1,-0.7,1.8,2470.233,13.32,0.02,8.5
2019-06-06T00:24:09,42.805,6.029,0.012,0.015,-0.058,98.0,105.0,96.0,13.4,1505.3,324.5,-0.7,1.9,2470.198,13.33,0.019,38.7
2019-06-06T00:27:10,42.805,6.029,0.022,0.025,-0.021,98.0,108.0,95.0,13.4,1505.3,327.6,-0.7,1.8,2470.24,13.33,0.033,41.3
2019-06-06T00:30:11,42.805,6.029,0.027,0.017,-0.035,98.0,103.0,96.0,13.4,1505.3,326.5,-0.8,1.8,2470.22,13.33,0.031,57.8
2019-06-06T00:33:12,42.805,6.029,0.001,0.0,-0.047,97.0,105.0,96.0,13.4,1505.3,324.4,-0.7,1.9,2470.189,13.33,0.001,90.0
2019-06-06T00:36:13,42.805,6.029,-0.014,-0.015,-0.064,98.0,103.0,96.0,13.4,1505.3,324.6,-0.7,1.9,2470.195,13.33,0.02,223.0
2019-06-06T00:39:14,42.805,6.029,0.018,0.006,-0.027,98.0,103.0,95.0,13.3,1505.3,326.8,-0.8,1.8,2470.188,13.33,0.018,71.6
2019-06-06T00:42:15,42.805,6.029,-0.009,-0.009,-0.069,98.0,103.0,95.0,13.4,1505.3,327.7,-0.8,1.8,2470.135,13.33,0.012,225.0
2019-06-06T00:45:16,42.805,6.029,0.018,0.001,-0.042,99.0,102.0,96.0,13.4,1505.3,325.6,-0.7,1.9,2470.189,13.33,0.018,86.8
2019-06-06T00:48:17,42.805,6.029,0.08,0.024,0.035,98.0,106.0,96.0,13.4,1505.3,326.2,-0.7,1.8,2470.151,13.33,0.083,73.3
2019-06-06T00:51:18,42.805,6.029,0.036,-0.002,0.001,97.0,106.0,95.0,13.4,1505.3,324.4,-0.7,1.8,2470.169,13.33,0.036,93.2
2019-06-06T00:54:19,42.805,6.029,0.038,0.003,0.006,98.0,105.0,96.0,13.4,1505.3,326.5,-0.7,1.9,2470.16,13.33,0.038,85.5
2019-06-06T00:57:20,42.805,6.029,0.051,0.0,-0.005,98.0,103.0,96.0,13.3,1505.3,327.5,-0.7,1.9,2470.206,13.33,0.051,90.0
2019-06-06T01:00:21,42.805,6.029,0.046,0.024,-0.002,98.0,104.0,94.0,13.3,1505.3,323.8,-0.7,1.9,2470.164,13.33,0.051,62.4
2019-06-06T01:03:22,42.805,6.029,0.021,0.01,-0.017,97.0,106.0,96.0,13.4,1505.3,324.2,-0.7,1.9,2470.156,13.33,0.023,64.5
2019-06-06T01:06:23,42.805,6.029,0.068,0.005,0.01,98.0,105.0,95.0,13.4,1505.3,323.8,-0.8,1.9,2470.147,13.33,0.068,85.8
2019-06-06T01:09:24,42.805,6.029,0.06,0.003,0.031,98.0,104.0,95.0,13.4,1505.3,325.3,-0.8,1.8,2470.19,13.33,0.06,87.1
2019-06-06T01:12:25,42.805,6.029,0.051,0.016,0.048,99.0,104.0,95.0,13.4,1505.3,326.4,-0.8,1.9,2470.177,13.33,0.053,72.6
2019-06-06T01:15:26,42.805,6.029,0.064,0.003,-0.004,99.0,104.0,95.0,13.4,1505.3,327.1,-0.7,1.9,2470.107,13.33,0.064,87.3
2019-06-06T01:18:27,42.805,6.029,0.045,0.003,-0.028,99.0,104.0,95.0,13.4,1505.3,327.9,-0.7,1.9,2470.154,13.33,0.045,86.2
2019-06-06T01:21:28,42.805,6.029,-0.006,0.006,-0.088,99.0,105.0,96.0,13.3,1505.3,324.4,-0.8,1.8,2470.091,13.33,0.008,315.0
2019-06-06T01:24:29,42.805,6.029,0.003,0.003,-0.06,97.0,105.0,96.0,13.4,1505.3,324.5,-0.7,1.8,2470.128,13.33,0.004,45.0
2019-06-06T01:27:30,42.805,6.029,0.032,0.006,-0.006,98.0,106.0,97.0,13.4,1505.3,324.6,-0.7,1.8,2470.108,13.33,0.032,79.4
2019-06-06T01:30:31,42.805,6.029,0.036,-0.005,-0.028,98.0,106.0,95.0,13.4,1505.3,325.5,-0.7,1.9,2470.134,13.33,0.036,97.9
2019-06-06T01:33:32,42.805,6.029,-0.02,0.001,-0.077,100.0,104.0,96.0,13.4,1505.3,322.8,-0.7,1.9,2470.107,13.33,0.02,272.9
2019-06-06T01:36:33,42.805,6.029,0.022,0.007,-0.035,98.0,105.0,96.0,13.4,1505.3,326.6,-0.8,1.9,2470.111,13.33,0.023,72.4
2019-06-06T01:39:34,42.805,6.029,-0.043,0.0,-0.08,100.0,107.0,95.0,13.3,1505.3,326.5,-0.7,1.8,2470.141,13.33,0.043,270.0
2019-06-06T01:42:35,42.805,6.029,-0.01,0.013,-0.073,98.0,108.0,94.0,13.4,1505.3,325.0,-0.7,1.9,2470.164,13.33,0.016,322.4
2019-06-06T01:45:36,42.805,6.029,-0.02,0.02,-0.08,96.0,107.0,96.0,13.4,1505.3,327.3,-0.7,1.8,2470.124,13.33,0.028,315.0
2019-06-06T01:48:37,42.805,6.029,-0.021,0.003,-0.091,96.0,107.0,96.0,13.4,1505.3,324.6,-0.7,1.9,2470.138,13.33,0.021,278.1
2019-06-06T01:51:38,42.805,6.029,-0.041,0.0,-0.1,96.0,106.0,96.0,13.4,1505.3,324.4,-0.7,1.9,2470.148,13.33,0.041,270.0
2019-06-06T01:54:39,42.805,6.029,-0.017,0.005,-0.046,97.0,108.0,96.0,13.3,1505.3,324.4,-0.7,1.8,2470.127,13.33,0.017,286.4
2019-06-06T01:57:40,42.805,6.029,0.036,0.008,-0.044,97.0,107.0,96.0,13.4,1505.3,327.5,-0.7,1.8,2470.113,13.33,0.036,77.5
2019-06-06T02:00:41,42.805,6.029,0.081,0.008,0.019,98.0,106.0,95.0,13.4,1505.3,325.5,-0.7,1.8,2470.115,13.33,0.081,84.4
2019-06-06T02:03:42,42.805,6.029,0.057,0.004,-0.009,98.0,105.0,96.0,13.3,1505.3,326.9,-0.8,1.9,2470.099,13.33,0.057,86.0
2019-06-06T02:06:43,42.805,6.029,0.065,0.007,0.009,99.0,106.0,96.0,13.4,1505.3,325.8,-0.8,1.8,2470.108,13.33,0.065,83.9
2019-06-06T02:09:44,42.805,6.029,0.063,0.015,0.026,98.0,106.0,95.0,13.4,1505.3,327.7,-0.8,1.9,2470.134,13.33,0.064,76.6
2019-06-06T02:12:45,42.805,6.029,0.051,0.012,0.001,96.0,106.0,97.0,13.4,1505.3,326.7,-0.7,1.9,2470.128,13.33,0.052,76.8
2019-06-06T02:15:46,42.805,6.029,0.053,0.012,-0.004,99.0,105.0,95.0,13.3,1505.3,324.4,-0.7,1.8,2470.169,13.33,0.054,77.2
2019-06-06T02:18:47,42.805,6.029,0.054,0.005,0.001,100.0,104.0,97.0,13.4,1505.3,324.4,-0.7,1.8,2470.084,13.33,0.054,84.7
2019-06-06T02:21:48,42.805,6.029,0.053,0.02,0.023,100.0,105.0,96.0,13.4,1505.3,323.3,-0.7,1.8,2470.117,13.33,0.056,69.3
2019-06-06T02:24:49,42.805,6.029,0.074,0.024,0.006,98.0,107.0,97.0,13.4,1505.3,324.2,-0.8,1.8,2470.101,13.33,0.077,72.0
2019-06-06T02:27:50,42.805,6.029,0.067,0.009,0.019,99.0,106.0,96.0,13.3,1505.3,322.8,-0.7,1.8,2470.116,13.33,0.067,82.3
2019-06-06T02:30:51,42.805,6.029,0.069,0.004,0.004,97.0,106.0,96.0,13.4,1505.3,325.0,-0.7,1.9,2470.094,13.33,0.069,86.7
2019-06-06T02:33:52,42.805,6.029,0.038,0.011,0.021,100.0,103.0,95.0,13.4,1505.3,323.8,-0.8,1.8,2470.042,13.33,0.039,73.9
2019-06-06T02:36:53,42.805,6.029,0.044,0.022,0.019,97.0,106.0,96.0,13.4,1505.3,324.3,-0.7,1.8,2470.093,13.33,0.049,63.4
2019-06-06T02:39:54,42.805,6.029,0.036,0.0,-0.03,98.0,103.0,96.0,13.4,1505.3,325.5,-0.7,1.9,2470.083,13.33,0.036,90.0
2019-06-06T02:42:55,42.805,6.029,0.051,0.015,0.003,98.0,106.0,96.0,13.4,1505.3,324.9,-0.8,1.9,2470.11,13.33,0.053,73.6
2019-06-06T02:45:56,42.805,6.029,0.015,0.005,-0.039,99.0,106.0,96.0,13.4,1505.3,323.4,-0.7,1.8,2470.12,13.33,0.015,71.6
2019-06-06T02:48:57,42.805,6.029,0.038,0.011,0.015,100.0,103.0,97.0,13.4,1505.3,325.9,-0.8,1.8,2470.064,13.33,0.039,73.9
2019-06-06T02:51:58,42.805,6.029,0.033,0.013,0.021,99.0,103.0,98.0,13.4,1505.3,326.9,-0.7,1.8,2470.07,13.33,0.035,68.5
2019-06-06T02:54:59,42.805,6.029,0.016,-0.002,-0.021,100.0,106.0,96.0,13.4,1505.3,325.6,-0.8,1.9,2470.094,13.33,0.016,97.1
2019-06-06T02:58:00,42.805,6.029,-0.037,0.008,-0.056,97.0,105.0,96.0,13.4,1505.3,324.1,-0.7,1.8,2470.098,13.33,0.037,282.2
2019-06-06T03:01:01,42.805,6.029,0.046,-0.012,-0.01,100.0,104.0,96.0,13.3,1505.3,325.7,-0.7,1.9,2470.045,13.33,0.047,104.6
2019-06-06T03:04:02,42.805,6.029,-0.042,0.01,-0.086,97.0,104.0,97.0,13.3,1505.3,326.5,-0.7,1.8,2470.048,13.33,0.043,283.4
2019-06-06T03:07:03,42.805,6.029,0.058,0.018,0.035,101.0,106.0,96.0,13.4,1505.3,325.3,-0.7,1.9,2470.059,13.33,0.06,72.8
2019-06-06T03:10:04,42.805,6.029,0.054,0.015,0.038,99.0,104.0,96.0,13.3,1505.3,323.2,-0.7,1.8,2470.088,13.33,0.056,74.5
2019-06-06T03:13:05,42.805,6.029,0.058,0.016,0.008,97.0,104.0,97.0,13.4,1505.3,324.5,-0.7,1.8,2470.043,13.33,0.06,74.6
2019-06-06T03:16:06,42.805,6.029,0.015,-0.008,-0.041,99.0,102.0,96.0,13.4,1505.3,327.0,-0.7,1.8,2470.063,13.33,0.017,118.1
2019-06-06T03:19:07,42.805,6.029,0.043,0.018,-0.02,98.0,103.0,96.0,13.3,1505.3,323.2,-0.7,1.8,2470.053,13.33,0.046,67.3
2019-06-06T03:22:08,42.805,6.029,0.017,0.015,-0.016,99.0,105.0,95.0,13.3,1505.3,324.3,-0.7,1.8,2470.061,13.33,0.022,48.6
2019-06-06T03:25:09,42.805,6.029,-0.008,0.011,-0.051,99.0,103.0,95.0,13.3,1505.3,323.5,-0.7,1.8,2470.04,13.33,0.013,324.0
2019-06-06T03:28:10,42.805,6.029,0.002,-0.005,-0.058,99.0,104.0,96.0,13.4,1505.3,324.7,-0.7,1.8,2470.042,13.33,0.005,158.2
2019-06-06T03:31:11,42.805,6.029,-0.003,-0.01,-0.039,99.0,103.0,96.0,13.4,1505.3,323.0,-0.8,1.8,2470.05,13.33,0.01,196.7
2019-06-06T03:34:12,42.805,6.029,-0.018,-0.014,-0.066,97.0,105.0,97.0,13.4,1505.3,326.0,-0.7,1.9,2470.082,13.33,0.022,232.1
2019-06-06T03:37:13,42.805,6.029,0.04,0.013,-0.003,100.0,105.0,96.0,13.3,1505.3,328.3,-0.7,1.9,2470.038,13.33,0.042,72.0
2019-06-06T03:40:14,42.805,6.029,0.033,0.011,-0.004,98.0,105.0,96.0,13.3,1505.3,324.1,-0.7,1.8,2470.027,13.33,0.034,71.6
2019-06-06T03:43:15,42.805,6.029,0.022,0.003,-0.026,97.0,103.0,96.0,13.4,1505.3,326.9,-0.7,1.8,2470.088,13.33,0.022,82.2
2019-06-06T03:46:16,42.805,6.029,0.026,-0.013,-0.041,98.0,103.0,96.0,13.4,1505.3,326.9,-0.8,1.9,2470.078,13.33,0.029,116.6
2019-06-06T03:49:17,42.805,6.029,0.024,0.016,-0.031,98.0,103.0,96.0,13.4,1505.3,326.4,-0.7,1.8,2470.07,13.33,0.028,56.3
2019-06-06T03:52:18,42.805,6.029,0.0,0.019,-0.032,99.0,103.0,96.0,13.4,1505.3,327.3,-0.8,1.9,2470.062,13.33,0.019,0.0
2019-06-06T03:55:19,42.805,6.029,0.067,0.034,0.023,100.0,103.0,96.0,13.4,1505.3,325.6,-0.7,1.9,2470.058,13.33,0.075,63.1
2019-06-06T03:58:20,42.805,6.029,0.03,0.022,0.011,98.0,108.0,96.0,13.3,1505.3,324.2,-0.8,1.9,2470.101,13.33,0.037,53.7
2019-06-06T04:01:21,42.805,6.029,-0.028,-0.009,-0.077,101.0,105.0,97.0,13.3,1505.3,326.5,-0.8,1.9,2470.051,13.33,0.029,252.2
2019-06-06T04:04:22,42.805,6.029,0.025,0.007,-0.037,100.0,106.0,95.0,13.4,1505.3,326.9,-0.7,1.8,2470.044,13.33,0.025,74.4
2019-06-06T04:07:23,42.805,6.029,0.02,0.015,-0.033,97.0,105.0,96.0,13.4,1505.3,325.4,-0.7,1.8,2470.071,13.33,0.025,53.1
2019-06-06T04:10:24,42.805,6.029,0.028,0.011,-0.027,98.0,105.0,97.0,13.4,1505.3,323.4,-0.8,1.8,2470.041,13.33,0.03,68.6
2019-06-06T04:13:25,42.805,6.029,0.008,-0.032,-0.083,98.0,104.0,97.0,13.3,1505.3,326.0,-0.7,1.9,2470.043,13.33,0.032,166.0
2019-06-06T04:16:26,42.805,6.029,0.065,-0.018,-0.024,98.0,105.0,96.0,13.3,1505.3,326.1,-0.8,1.8,2470.059,13.33,0.067,105.5
2019-06-06T04:19:27,42.805,6.029,0.02,0.001,-0.036,97.0,106.0,97.0,13.4,1505.3,323.4,-0.7,1.8,2470.087,13.33,0.02,87.1
2019-06-06T04:22:28,42.805,6.029,0.001,0.007,-0.063,98.0,105.0,96.0,13.4,1505.3,324.9,-0.7,1.9,2470.083,13.33,0.007,8.1
2019-06-06T04:25:29,42.805,6.029,0.033,0.006,-0.023,98.0,107.0,97.0,13.4,1505.3,326.5,-0.7,1.8,2470.144,13.33,0.033,79.7
2019-06-06T04:28:30,42.805,6.029,0.045,0.025,0.01,98.0,104.0,96.0,13.4,1505.3,326.4,-0.8,1.9,2470.038,13.33,0.051,60.9
2019-06-06T04:31:31,42.805,6.029,0.052,-0.009,0.013,96.0,103.0,97.0,13.3,1505.3,327.3,-0.7,1.9,2470.063,13.33,0.052,99.8
2019-06-06T04:34:32,42.805,6.029,0.012,0.0,-0.04,98.0,105.0,96.0,13.4,1505.3,322.7,-0.8,1.8,2470.035,13.33,0.012,90.0
2019-06-06T04:37:33,42.805,6.029,0.01,0.016,-0.029,98.0,102.0,95.0,13.4,1505.3,324.4,-0.7,1.8,2470.081,13.33,0.018,32.0
2019-06-06T04:40:34,42.805,6.029,0.072,-0.011,-0.013,97.0,103.0,96.0,13.4,1505.3,323.6,-0.7,1.9,2470.116,13.33,0.072,98.7
2019-06-06T04:43:35,42.805,6.029,0.008,0.014,-0.049,98.0,102.0,96.0,13.3,1505.3,326.9,-0.7,1.9,2470.047,13.33,0.016,29.7
2019-06-06T04:46:36,42.805,6.029,0.064,0.021,0.023,99.0,103.0,97.0,13.4,1505.3,328.1,-0.7,1.9,2469.994,13.33,0.067,71.8
2019-06-06T04:49:37,42.805,6.029,0.057,0.007,0.005,99.0,103.0,97.0,13.4,1505.3,323.1,-0.7,1.9,2470.048,13.33,0.057,83.0
2019-06-06T04:52:38,42.805,6.029,0.046,0.018,0.039,97.0,104.0,96.0,13.4,1505.3,324.3,-0.7,1.9,2470.076,13.33,0.049,68.6
2019-06-06T04:55:39,42.805,6.029,0.042,0.029,-0.008,98.0,102.0,96.0,13.3,1505.3,325.4,-0.8,1.8,2470.038,13.33,0.051,55.4
2019-06-06T04:58:40,42.805,6.029,0.038,0.003,-0.009,99.0,103.0,96.0,13.3,1505.3,324.8,-0.7,1.8,2470.069,13.33,0.038,85.5
2019-06-06T05:01:41,42.805,6.029,0.06,0.013,0.004,97.0,103.0,95.0,13.4,1505.3,323.7,-0.7,1.8,2470.079,13.33,0.061,77.8
2019-06-06T05:04:42,42.805,6.029,0.0,0.001,-0.04,97.0,104.0,95.0,13.4,1505.3,325.3,-0.8,1.8,2470.066,13.33,0.001,0.0
2019-06-06T05:07:43,42.805,6.029,-0.019,0.007,-0.059,99.0,102.0,94.0,13.4,1505.3,328.4,-0.7,1.9,2470.048,13.33,0.02,290.2
2019-06-06T05:10:44,42.805,6.029,0.089,0.006,0.024,97.0,102.0,96.0,13.3,1505.3,326.6,-0.7,1.9,2470.04,13.33,0.089,86.1
2019-06-06T05:13:45,42.805,6.029,0.024,-0.002,-0.028,98.0,103.0,96.0,13.4,1505.3,327.6,-0.7,1.8,2470.065,13.33,0.024,94.8
2019-06-06T05:16:46,42.805,6.029,0.095,0.004,0.001,95.0,103.0,96.0,13.4,1505.3,326.4,-0.7,1.8,2470.086,13.33,0.095,87.6
2019-06-06T05:19:47,42.805,6.029,0.123,0.0,0.074,97.0,104.0,95.0,13.4,1505.3,327.5,-0.7,1.8,2470.097,13.33,0.123,90.0
2019-06-06T05:22:48,42.805,6.029,0.078,0.003,-0.009,99.0,102.0,95.0,13.4,1505.3,324.1,-0.7,1.8,2470.038,13.33,0.078,87.8
2019-06-06T05:25:49,42.805,6.029,0.064,0.007,0.03,99.0,104.0,96.0,13.3,1505.3,325.0,-0.8,1.9,2470.077,13.33,0.064,83.8
2019-06-06T05:28:50,42.805,6.029,0.072,0.01,0.011,98.0,105.0,96.0,13.4,1505.3,325.2,-0.7,1.8,2470.075,13.33,0.072,82.1
2019-06-06T05:31:51,42.805,6.029,0.113,0.008,0.073,97.0,104.0,97.0,13.4,1505.3,326.3,-0.8,1.8,2470.053,13.33,0.113,86.0
2019-06-06T05:34:52,42.805,6.029,0.095,0.015,0.036,100.0,105.0,97.0,13.4,1505.3,327.0,-0.8,1.9,2470.088,13.33,0.096,81.0
2019-06-06T05:37:53,42.805,6.029,0.034,0.019,-0.001,99.0,105.0,95.0,13.4,1505.3,324.0,-0.7,1.9,2470.067,13.33,0.038,60.8
2019-06-06T05:40:54,42.805,6.029,-0.018,0.007,-0.082,101.0,105.0,94.0,13.4,1505.3,324.6,-0.8,1.9,2470.118,13.33,0.019,291.2
2019-06-06T05:43:55,42.805,6.029,0.047,0.008,0.009,100.0,106.0,95.0,13.4,1505.3,325.0,-0.7,1.9,2470.117,13.33,0.047,80.3
2019-06-06T05:46:56,42.805,6.029,0.061,0.012,0.028,98.0,104.0,96.0,13.4,1505.3,324.0,-0.7,1.9,2470.078,13.33,0.062,78.9
2019-06-06T05:49:57,42.805,6.029,0.046,0.001,0.013,97.0,104.0,96.0,13.4,1505.3,324.5,-0.7,1.8,2470.103,13.33,0.046,88.8
2019-06-06T05:52:58,42.805,6.029,0.033,0.021,-0.024,99.0,104.0,96.0,13.4,1505.3,323.6,-0.7,1.8,2470.106,13.33,0.039,57.5
2019-06-06T05:55:59,42.805,6.029,0.054,0.011,0.0,97.0,105.0,95.0,13.4,1505.3,325.3,-0.7,1.8,2470.12,13.33,0.055,78.5
2019-06-06T05:59:00,42.805,6.029,-0.061,0.003,-0.122,98.0,104.0,95.0,13.4,1505.3,325.1,-0.7,1.8,2470.043,13.33,0.061,272.8
2019-06-06T06:02:01,42.805,6.029,0.023,-0.005,-0.037,98.0,104.0,96.0,13.3,1505.3,325.0,-0.8,1.9,2470.132,13.33,0.023,102.3
2019-06-06T06:05:02,42.805,6.029,0.067,0.023,0.009,97.0,105.0,96.0,13.4,1505.3,323.5,-0.8,1.8,2470.127,13.33,0.07,71.1
2019-06-06T06:08:03,42.805,6.029,0.011,0.023,-0.015,98.0,104.0,96.0,13.4,1505.3,324.8,-0.8,1.8,2470.148,13.33,0.025,25.6
2019-06-06T06:11:04,42.805,6.029,0.066,0.027,0.016,99.0,105.0,95.0,13.3,1505.3,323.5,-0.7,1.9,2470.109,13.33,0.071,67.8
2019-06-06T06:14:05,42.805,6.029,0.034,0.01,0.01,97.0,105.0,98.0,13.4,1505.3,326.5,-0.7,1.8,2470.047,13.33,0.035,73.6
2019-06-06T06:17:06,42.805,6.029,-0.064,-0.003,-0.116,98.0,103.0,97.0,13.4,1505.3,324.5,-0.7,1.8,2470.098,13.33,0.064,267.3
2019-06-06T06:20:07,42.805,6.029,0.027,0.002,-0.001,95.0,108.0,97.0,13.4,1505.3,324.7,-0.8,1.8,2470.13,13.33,0.027,85.8
2019-06-06T06:23:08,42.805,6.029,-0.005,0.005,-0.067,97.0,105.0,97.0,13.4,1505.3,325.6,-0.7,1.9,2470.104,13.33,0.007,315.0
2019-06-06T06:26:09,42.805,6.029,0.03,0.008,-0.021,98.0,105.0,96.0,13.3,1505.3,324.4,-0.8,1.8,2470.101,13.33,0.031,75.1
2019-06-06T06:29:10,42.805,6.029,0.065,0.011,0.012,96.0,105.0,96.0,13.4,1505.3,323.5,-0.7,1.9,2470.122,13.33,0.065,80.4
2019-06-06T06:32:11,42.805,6.029,-0.009,0.009,-0.075,98.0,104.0,96.0,13.4,1505.3,325.1,-0.7,1.8,2470.127,13.33,0.012,315.0
2019-06-06T06:35:12,42.805,6.029,0.062,0.021,0.011,98.0,105.0,96.0,13.4,1505.3,322.6,-0.8,1.8,2470.125,13.33,0.065,71.3
2019-06-06T06:38:13,42.805,6.029,0.012,0.025,-0.039,97.0,105.0,96.0,13.3,1505.3,326.7,-0.8,1.8,2470.121,13.33,0.027,25.6
2019-06-06T06:41:14,42.805,6.029,0.086,0.014,0.02,98.0,105.0,99.0,13.4,1505.3,324.2,-0.7,1.8,2470.158,13.33,0.087,80.8
2019-06-06T06:44:15,42.805,6.029,-0.066,0.007,-0.102,98.0,104.0,96.0,13.3,1505.3,324.7,-0.8,1.8,2470.128,13.33,0.066,276.1
2019-06-06T06:47:16,42.805,6.029,0.002,0.017,-0.053,99.0,105.0,95.0,13.3,1505.3,323.4,-0.8,1.9,2470.148,13.33,0.017,6.7
2019-06-06T06:50:17,42.805,6.029,-0.01,0.0,-0.065,98.0,104.0,96.0,13.3,1505.3,326.0,-0.7,1.9,2470.122,13.33,0.01,270.0
2019-06-06T06:53:18,42.805,6.029,0.028,0.006,-0.03,97.0,103.0,96.0,13.4,1505.3,324.1,-0.7,1.8,2470.159,13.33,0.028,77.9
2019-06-06T06:56:19,42.805,6.029,-0.016,0.015,-0.037,98.0,103.0,95.0,13.4,1505.3,327.9,-0.8,1.9,2470.14,13.33,0.021,313.1
2019-06-06T06:59:20,42.805,6.029,-0.026,0.004,-0.073,100.0,102.0,95.0,13.4,1505.3,324.1,-0.7,1.8,2470.128,13.33,0.026,278.7
2019-06-06T07:02:21,42.805,6.029,-0.024,0.004,-0.066,98.0,104.0,96.0,13.3,1505.3,324.8,-0.7,1.8,2470.15,13.33,0.024,279.5
2019-06-06T07:05:22,42.805,6.029,-0.037,0.002,-0.099,98.0,103.0,95.0,13.4,1505.3,322.7,-0.8,1.9,2470.164,13.33,0.037,273.1
2019-06-06T07:08:23,42.805,6.029,0.034,0.015,-0.013,99.0,103.0,95.0,13.4,1505.3,325.9,-0.7,1.9,2470.153,13.33,0.037,66.2
2019-06-06T07:11:24,42.805,6.029,-0.021,0.013,-0.081,99.0,105.0,97.0,13.3,1505.3,323.2,-0.7,1.8,2470.176,13.33,0.024,301.8
2019-06-06T07:14:25,42.805,6.029,-0.046,0.009,-0.046,98.0,104.0,96.0,13.4,1505.3,324.3,-0.8,1.9,2470.169,13.33,0.046,281.1
2019-06-06T07:17:26,42.805,6.029,-0.051,-0.001,-0.098,98.0,105.0,97.0,13.3,1505.3,322.7,-0.7,1.9,2470.146,13.33,0.051,268.9
2019-06-06T07:20:27,42.805,6.029,-0.06,0.002,-0.081,97.0,104.0,97.0,13.3,1505.3,324.4,-0.7,1.8,2470.128,13.33,0.06,271.9
2019-06-06T07:23:28,42.805,6.029,-0.039,-0.002,-0.067,99.0,105.0,96.0,13.3,1505.3,323.3,-0.8,1.8,2470.132,13.33,0.039,267.1
2019-06-06T07:26:29,42.805,6.029,-0.013,0.013,-0.099,97.0,105.0,97.0,13.3,1505.3,327.9,-0.8,1.9,2470.135,13.33,0.018,315.0
2019-06-06T07:29:30,42.805,6.029,0.061,0.01,0.013,99.0,103.0,97.0,13.4,1505.3,326.4,-0.7,1.8,2470.159,13.33,0.061,80.7
2019-06-06T07:32:31,42.805,6.029,0.066,0.016,0.04,99.0,105.0,97.0,13.3,1505.3,326.2,-0.7,1.9,2470.099,13.33,0.067,76.4
2019-06-06T07:35:32,42.805,6.029,0.014,0.0,-0.019,100.0,105.0,96.0,13.4,1505.3,324.8,-0.8,1.8,2470.189,13.33,0.014,90.0
2019-06-06T07:38:33,42.805,6.029,-0.029,0.012,-0.073,101.0,105.0,96.0,13.3,1505.3,323.5,-0.7,1.9,2470.16,13.33,0.031,292.5
2019-06-06T07:41:34,42.805,6.029,-0.002,0.009,-0.016,100.0,106.0,98.0,13.3,1505.3,326.6,-0.8,1.9,2470.115,13.33,0.009,347.5
2019-06-06T07:44:35,42.805,6.029,0.016,0.003,-0.023,99.0,104.0,97.0,13.4,1505.3,323.7,-0.8,1.8,2470.197,13.33,0.016,79.4
2019-06-06T07:47:36,42.805,6.029,0.035,0.014,-0.008,101.0,104.0,96.0,13.4,1505.3,326.3,-0.8,1.8,2470.139,13.33,0.037,68.2
2019-06-06T07:50:37,42.805,6.029,0.017,-0.001,-0.026,98.0,102.0,97.0,13.3,1505.3,326.3,-0.8,1.9,2470.128,13.33,0.017,93.4
2019-06-06T07:53:38,42.805,6.029,0.027,0.006,-0.009,101.0,102.0,97.0,13.4,1505.3,327.6,-0.7,1.8,2470.146,13.33,0.027,77.5
2019-06-06T07:56:39,42.805,6.029,-0.045,-0.007,-0.087,99.0,104.0,97.0,13.4,1505.3,324.8,-0.7,1.9,2470.174,13.33,0.045,261.2
2019-06-06T07:59:40,42.805,6.029,-0.031,0.015,-0.1,98.0,106.0,98.0,13.3,1505.3,325.7,-0.8,1.9,2470.174,13.33,0.034,295.8
2019-06-06T08:02:41,42.805,6.029,-0.044,-0.005,-0.12,98.0,105.0,96.0,13.4,1505.3,323.5,-0.7,1.8,2470.153,13.33,0.044,263.5
2019-06-06T08:05:42,42.805,6.029,0.033,0.004,-0.018,101.0,103.0,96.0,13.4,1505.3,324.7,-0.7,1.8,2470.205,13.33,0.033,83.1
2019-06-06T08:08:43,42.805,6.029,0.004,0.007,-0.06,100.0,104.0,96.0,13.3,1505.3,323.6,-0.7,1.8,2470.206,13.33,0.008,29.7
2019-06-06T08:11:44,42.805,6.029,0.038,-0.009,-0.03,99.0,103.0,96.0,13.4,1505.3,324.7,-0.8,1.9,2470.159,13.33,0.039,103.3
2019-06-06T08:14:45,42.805,6.029,-0.002,-0.01,-0.042,99.0,103.0,97.0,13.4,1505.3,323.5,-0.7,1.8,2470.172,13.33,0.01,191.3
2019-06-06T08:17:46,42.805,6.029,0.04,0.013,-0.019,100.0,104.0,96.0,13.4,1505.3,324.7,-0.7,1.8,2470.169,13.33,0.042,72.0
2019-06-06T08:20:47,42.805,6.029,0.021,0.012,0.002,98.0,104.0,97.0,13.4,1505.3,324.6,-0.7,1.8,2470.198,13.33,0.024,60.3
2019-06-06T08:23:48,42.805,6.029,0.002,-0.011,-0.051,98.0,104.0,95.0,13.3,1505.3,326.5,-0.7,1.8,2470.201,13.33,0.011,169.7
2019-06-06T08:26:49,42.805,6.029,-0.005,-0.002,-0.061,100.0,101.0,97.0,13.4,1505.3,325.1,-0.7,1.8,2470.132,13.33,0.005,248.2
2019-06-06T08:29:50,42.805,6.029,-0.018,0.008,-0.072,100.0,102.0,97.0,13.3,1505.3,327.4,-0.8,1.9,2470.165,13.33,0.019,294.0
2019-06-06T08:32:51,42.805,6.029,-0.033,-0.002,-0.102,99.0,102.0,97.0,13.4,1505.3,324.5,-0.7,1.8,2470.182,13.33,0.033,266.5
2019-06-06T08:35:52,42.805,6.029,-0.012,0.009,-0.034,98.0,103.0,96.0,13.4,1505.3,327.2,-0.8,1.9,2470.218,13.33,0.015,306.9
2019-06-06T08:38:53,42.805,6.029,0.04,0.004,-0.014,98.0,107.0,96.0,13.4,1505.3,323.9,-0.8,1.8,2470.177,13.33,0.04,84.3
2019-06-06T08:41:54,42.805,6.029,0.023,0.009,0.0,97.0,104.0,96.0,13.4,1505.3,326.0,-0.8,1.8,2470.174,13.33,0.024,68.6
2019-06-06T08:44:55,42.805,6.029,0.016,0.008,-0.033,98.0,104.0,96.0,13.4,1505.3,326.3,-0.7,1.9,2470.171,13.33,0.017,63.4
2019-06-06T08:47:56,42.805,6.029,0.016,0.033,-0.034,99.0,103.0,96.0,13.4,1505.3,327.8,-0.8,1.9,2470.164,13.33,0.036,25.9
2019-06-06T08:50:57,42.805,6.029,0.023,0.023,-0.03,99.0,103.0,96.0,13.4,1505.3,326.5,-0.7,1.8,2470.162,13.33,0.032,45.0
2019-06-06T08:53:58,42.805,6.029,0.037,0.027,0.008,99.0,103.0,96.0,13.4,1505.3,324.6,-0.8,1.8,2470.167,13.33,0.045,53.9
2019-06-06T08:56:59,42.805,6.029,0.026,0.012,-0.016,99.0,103.0,98.0,13.4,1505.3,323.8,-0.7,1.8,2470.192,13.33,0.028,65.2
2019-06-06T09:00:00,42.805,6.029,0.005,-0.006,-0.043,99.0,104.0,96.0,13.4,1505.3,324.5,-0.7,1.9,2470.179,13.33,0.007,140.2
2019-06-06T09:03:01,42.805,6.029,0.035,0.003,-0.001,98.0,105.0,97.0,13.4,1505.3,323.5,-0.7,1.8,2470.164,13.33,0.035,85.1
2019-06-06T09:06:02,42.805,6.029,0.014,0.0,-0.041,100.0,104.0,97.0,13.3,1505.3,325.9,-0.7,1.8,2470.153,13.33,0.014,90.0
2019-06-06T09:09:03,42.805,6.029,0.015,0.002,-0.011,99.0,105.0,97.0,13.4,1505.3,325.8,-0.7,1.9,2470.167,13.33,0.015,82.4
2019-06-06T09:12:04,42.805,6.029,0.043,0.004,0.0,99.0,103.0,96.0,13.4,1505.3,324.4,-0.7,1.8,2470.169,13.33,0.043,84.7
2019-06-06T09:15:05,42.805,6.029,0.019,0.0,-0.051,100.0,102.0,96.0,13.4,1505.3,322.9,-0.7,1.8,2470.16,13.33,0.019,90.0
2019-06-06T09:18:06,42.805,6.029,-0.003,0.032,-0.049,98.0,104.0,96.0,13.4,1505.3,324.8,-0.8,1.8,2470.146,13.33,0.032,354.6
2019-06-06T09:21:07,42.805,6.029,0.01,0.0,-0.061,100.0,105.0,98.0,13.4,1505.3,323.4,-0.7,1.9,2470.164,13.33,0.01,90.0
2019-06-06T09:24:08,42.805,6.029,-0.04,-0.008,-0.04,100.0,104.0,96.0,13.3,1505.3,325.7,-0.7,1.9,2470.15,13.33,0.04,258.7
2019-06-06T09:27:09,42.805,6.029,0.002,-0.001,-0.038,100.0,106.0,96.0,13.4,1505.3,328.1,-0.7,1.9,2470.176,13.33,0.002,116.6
2019-06-06T09:30:10,42.805,6.029,0.021,0.011,0.002,98.0,104.0,97.0,13.4,1505.3,326.8,-0.7,1.9,2470.178,13.33,0.023,62.4
2019-06-06T09:33:11,42.805,6.029,-0.001,0.0,-0.027,99.0,104.0,97.0,13.4,1505.3,328.0,-0.8,1.8,2470.12,13.33,0.001,270.0
2019-06-06T09:36:12,42.805,6.029,0.002,0.003,-0.053,98.0,104.0,97.0,13.4,1505.3,323.2,-0.7,1.9,2470.174,13.33,0.003,33.7
2019-06-06T09:39:13,42.805,6.029,0.019,0.011,-0.021,100.0,105.0,95.0,13.4,1505.3,325.3,-0.7,1.8,2470.192,13.33,0.021,59.9
2019-06-06T09:42:14,42.805,6.029,0.006,0.019,0.009,100.0,106.0,97.0,13.3,1505.3,323.2,-0.7,1.8,2470.19,13.33,0.019,17.5
2019-06-06T09:45:15,42.805,6.029,0.011,0.02,-0.029,98.0,103.0,97.0,13.3,1505.3,326.8,-0.7,1.9,2470.153,13.33,0.022,28.8
2019-06-06T09:48:16,42.805,6.029,0.009,0.006,-0.032,102.0,102.0,98.0,13.3,1505.3,324.3,-0.7,1.9,2470.134,13.33,0.01,56.3